GW3202 Weather Reports


time (UTC)temp
F
wind
direction
speed
knots
gust
knots
rain 1hr
in
rain 24hr
in
rain mn
in
humidity
%
barometer
mb
20260509035005 71 138 6.1 17.4 0.00 0.00 0.00 56 1017.2
20260509033004 71 137 5.2 20.0 0.00 0.00 0.00 64 1017.0
20260509031005 71 142 7.8 22.6 0.00 0.00 0.00 63 1016.6
20260509030004 71 129 11.3 21.7 0.00 0.00 0.00 62 1016.5
20260509025005 71 151 10.4 24.3 0.00 0.00 0.00 59 1016.2
20260509024003 71 146 15.6 24.3 0.00 0.00 0.00 59 1016.1
20260509015004 74 142 13.9 19.1 0.00 0.00 0.00 57 1015.6
20260509014007 75 144 8.7 20.9 0.00 0.00 0.00 57 1015.7
20260509013004 76 127 7.0 20.0 0.00 0.00 0.00 55 1015.5
20260509012004 76 98 5.2 19.1 0.00 0.00 0.00 54 1015.4
20260509010004 77 153 10.4 20.9 0.00 0.00 0.00 50 1015.3
20260509005005 78 147 10.4 20.9 0.00 0.00 0.00 49 1015.2
20260509004004 79 154 8.7 20.0 0.00 0.00 0.00 47 1015.3
20260509002004 80 151 6.1 19.1 0.00 0.00 0.00 45 1015.2
20260509000004 81 152 6.1 15.6 0.00 0.00 0.00 45 1015.2
20260508235004 82 165 6.1 18.2 0.00 0.00 0.00 44 1015.2
20260508234005 82 175 7.8 13.9 0.00 0.00 0.00 44 1015.1
20260508233004 82 150 7.8 14.8 0.00 0.00 0.00 44 1015.1
20260508230005 84 155 4.3 13.9 0.00 0.00 0.00 42 1015.3
20260508225005 83 165 6.1 14.8 0.00 0.00 0.00 44 1015.3
20260508224004 82 170 5.2 20.0 0.00 0.00 0.00 45 1015.5
20260508223005 82 158 7.8 14.8 0.00 0.00 0.00 45 1015.5
20260508221004 83 137 4.3 17.4 0.00 0.00 0.00 44 1015.5
20260508220004 83 156 6.1 15.6 0.00 0.00 0.00 45 1015.6
20260508215004 84 227 5.2 14.8 0.00 0.00 0.00 43 1015.5
20260508214004 83 148 6.1 14.8 0.00 0.00 0.00 46 1015.7
20260508213008 83 165 5.2 13.0 0.00 0.00 0.00 45 1015.8
20260508212005 83 169 3.5 14.8 0.00 0.00 0.00 44 1016.0
20260508211004 84 147 4.3 13.0 0.00 0.00 0.00 44 1016.2
20260508210004 86 201 5.2 17.4 0.00 0.00 0.00 42 1016.1
20260508205005 86 155 9.6 14.8 0.00 0.00 0.00 40 1016.2
20260508204005 88 199 2.6 12.2 0.00 0.00 0.00 38 1016.2
20260508203004 89 234 4.3 10.4 0.00 0.00 0.00 37 1016.4
20260508202005 88 240 2.6 8.7 0.00 0.00 0.00 36 1016.3
20260508201005 89 166 2.6 14.8 0.00 0.00 0.00 35 1016.6
20260508195004 87 194 4.3 19.1 0.00 0.00 0.00 35 1016.7
20260508194005 88 183 4.3 13.0 0.00 0.00 0.00 35 1016.8
20260508193007 87 226 2.6 12.2 0.00 0.00 0.00 35 1017.1
20260508191004 86 167 5.2 12.2 0.00 0.00 0.00 36 1017.1
20260508190005 87 227 4.3 11.3 0.00 0.00 0.00 35 1017.3
20260508185004 87 220 5.2 11.3 0.00 0.00 0.00 36 1017.5
20260508183004 86 244 6.1 11.3 0.00 0.00 0.00 37 1017.8
20260508182004 87 197 1.7 10.4 0.00 0.00 0.00 37 1017.8
20260508181004 86 211 4.3 10.4 0.00 0.00 0.00 38 1017.9
20260508180002 84 314 2.6 7.0 0.00 0.00 0.00 37 1017.9
20260508174002 85 264 0.9 5.2 0.00 0.00 0.00 38 1018.1
20260508172002 83 317 0.9 6.1 0.00 0.00 0.00 41 1018.4
20260508171003 82 240 2.6 7.0 0.00 0.00 0.00 42 1018.4
20260508170002 82 250 0.9 6.1 0.00 0.00 0.00 45 1018.5
20260508164002 80 287 1.7 2.6 0.00 0.00 0.00 48 1018.7
20260508163003 78 267 0.9 5.2 0.00 0.00 0.00 49 1018.7
20260508162003 77 2 1.7 5.2 0.00 0.00 0.00 51 1018.9
20260508161003 78 210 0.9 2.6 0.00 0.00 0.00 49 1019.0
20260508160002 76 97 1.7 4.3 0.00 0.00 0.00 51 1019.1
20260508155004 75 291 2.6 4.3 0.00 0.00 0.00 52 1019.1
20260508153003 73 92 1.7 4.3 0.00 0.00 0.00 56 1019.2
20260508151003 74 16 0.9 2.6 0.00 0.00 0.00 55 1019.1
20260508145003 69 15 0.9 2.6 0.00 0.00 0.00 62 1019.1
20260508144002 69 49 0.9 2.6 0.00 0.00 0.00 62 1019.0
20260508143003 71 26 0.9 2.6 0.00 0.00 0.00 61 1019.1
20260508142003 70 123 0.9 1.7 0.00 0.00 0.00 62 1019.0
20260508140003 68 131 0.9 2.6 0.00 0.00 0.00 64 1019.1
20260508135004 65 157 0.0 1.7 0.00 0.00 0.00 68 1019.1
20260508132003 62 75 0.0 1.7 0.00 0.00 0.00 72 1018.9
20260508130004 60 236 0.0 0.9 0.00 0.00 0.00 74 1018.8
20260508125005 60 261 0.0 1.7 0.00 0.00 0.00 75 1018.7
20260508124005 60 241 0.9 1.7 0.00 0.00 0.00 75 1018.7
20260508123003 60 88 0.0 2.6 0.00 0.00 0.00 75 1018.5
20260508121003 60 120 0.9 2.6 0.00 0.00 0.00 74 1018.5
20260508120002 60 117 2.6 2.6 0.00 0.00 0.00 74 1018.6
20260508115003 60 101 1.7 2.6 0.00 0.00 0.00 74 1018.6
20260508114003 59 108 0.0 1.7 0.00 0.00 0.00 75 1018.5
20260508113005 60 127 0.9 1.7 0.00 0.00 0.00 74 1018.4
20260508112004 60 180 0.0 1.7 0.00 0.00 0.00 75 1018.4
20260508111003 60 270 0.9 0.9 0.00 0.00 0.00 74 1018.4
20260508110003 60 264 0.0 1.7 0.00 0.00 0.00 73 1018.4
20260508105003 61 273 0.0 1.7 0.00 0.00 0.00 72 1018.3
20260508104003 61 209 0.0 0.9 0.00 0.00 0.00 72 1018.1
20260508103002 61 102 0.0 1.7 0.00 0.00 0.00 72 1018.1
20260508102003 62 142 1.7 2.6 0.00 0.00 0.00 71 1018.1
20260508101004 62 43 0.9 1.7 0.00 0.00 0.00 70 1018.0
20260508100003 62 109 0.9 2.6 0.00 0.00 0.00 69 1017.8
20260508094003 61 237 0.0 0.9 0.00 0.00 0.00 70 1017.8
20260508093003 61 285 0.0 1.7 0.00 0.00 0.00 70 1017.8
20260508092004 62 257 0.0 2.6 0.00 0.00 0.00 66 1017.9
20260508091005 63 172 0.0 0.9 0.00 0.00 0.00 64 1018.2
20260508085003 63 157 0.9 2.6 0.00 0.00 0.00 63 1018.2
20260508084003 63 125 1.7 2.6 0.00 0.00 0.00 63 1018.2
20260508083003 63 101 0.0 2.6 0.00 0.00 0.00 63 1018.4
20260508082003 63 122 0.0 2.6 0.00 0.00 0.00 63 1018.3
20260508080003 64 215 0.0 1.7 0.00 0.00 0.00 61 1018.5
20260508075003 64 200 0.0 1.7 0.00 0.00 0.00 60 1018.6
20260508072003 64 102 0.9 6.1 0.00 0.00 0.00 59 1019.0
20260508071004 64 113 0.9 4.3 0.00 0.00 0.00 60 1019.1
20260508070006 65 77 0.9 1.7 0.00 0.00 0.00 62 1019.1
20260508065003 65 261 0.0 1.7 0.00 0.00 0.00 60 1019.1
20260508063003 65 262 0.0 1.7 0.00 0.00 0.00 56 1019.4
20260508062004 65 102 0.0 2.6 0.00 0.00 0.00 55 1019.3
20260508060004 65 140 0.9 2.6 0.00 0.00 0.00 55 1019.6
20260508055003 66 154 1.7 2.6 0.00 0.00 0.00 54 1019.6
20260508054003 66 156 1.7 2.6 0.00 0.00 0.00 56 1019.8
20260508053004 66 242 1.7 4.3 0.00 0.00 0.00 58 1019.8
20260508052004 67 251 0.9 1.7 0.00 0.00 0.00 57 1019.8
20260508051003 68 0 0.9 1.7 0.00 0.00 0.00 54 1019.9
20260508050003 68 251 0.0 2.6 0.00 0.00 0.00 53 1019.9
20260508045003 69 139 1.7 4.3 0.00 0.00 0.00 48 1019.7
20260508044004 70 145 0.0 5.2 0.00 0.00 0.00 47 1019.7
20260508043003 70 131 1.7 6.1 0.00 0.00 0.00 48 1019.6
20260508042003 70 339 3.5 8.7 0.00 0.00 0.00 47 1019.3
20260508041004 70 148 3.5 12.2 0.00 0.00 0.00 47 1018.8
20260508040003 70 161 6.1 17.4 0.00 0.00 0.00 47 1018.7